This demonstration page uses our WeatherBlox Daily Observations layout. Learn more.

Left ArrowRight Arrow

Hourly Observations for September 5, 2021

Temp ( °F °C ) Dew Point ( °F °C ) Humidity (%) Winds ( mph kmh ) Pressure ( in mb ) Visibility ( mi km ) Precip ( " mm )
12:51 am 00:51 Mostly Cloudy 80 26.7 64 17.8 58 58 E 5 7 29.78 1009 10 16 N/A
1:51 am 01:51 Clear 78 25.6 66 18.9 67 67 N N/A 29.79 1009 10 16 N/A
2:51 am 02:51 Clear 76 24.4 67 19.4 74 74 N 3 6 29.79 1009 10 16 N/A
3:51 am 03:51 Clear 76 24.4 67 19.4 74 74 N 3 6 29.79 1009 10 16 N/A
4:51 am 04:51 Clear 75 23.9 67 19.4 76 76 N N/A 29.80 1009 10 16 N/A
5:51 am 05:51 Clear 73 22.8 67 19.4 81 81 N N/A 29.83 1010 10 16 N/A
6:51 am 06:51 Sunny 75 23.9 69 20.6 82 82 N N/A 29.85 1011 10 16 N/A
7:51 am 07:51 Sunny 80 26.7 66 18.9 62 62 N N/A 29.85 1011 10 16 N/A
8:51 am 08:51 Sunny 84 28.9 67 19.4 57 57 WNW 3 6 29.86 1011 10 16 N/A
9:51 am 09:51 Sunny 89 31.7 64 17.8 43 43 ESE 9 15 29.86 1011 10 16 N/A
10:51 am 10:51 Sunny 90 32.2 65 18.3 44 44 SSE 6 9 29.86 1011 10 16 N/A
11:51 am 11:51 Sunny 92 33.3 64 17.8 40 40 N N/A 29.83 1010 10 16 N/A
12:51 pm 12:51 Sunny 94 34.4 64 17.8 37 37 S 8 13 29.80 1009 10 16 N/A
1:51 pm 13:51 Sunny 95 35 64 17.8 36 36 SSW 6 9 29.77 1008 10 16 N/A
2:20 pm 14:20 Sunny with Nearby Thunderstorms 95 35 63 17.2 35 35 VRB 5 7 29.65 1004 10 16 N/A
2:35 pm 14:35 Sunny 95 35 63 17.2 35 35 SSE 9 15 29.65 1004 10 16 N/A
2:51 pm 14:51 Sunny 96 35.6 63 17.2 34 34 VRB 7 11 29.76 1008 10 16 N/A
3:03 pm 15:03 Partly Cloudy with Nearby Thunderstorms 96 35.6 63 17.2 34 34 SE 10 17 29.64 1004 10 16 N/A
3:28 pm 15:28 Cloudy with Thunderstorms 89 31.7 61 16.1 39 39 NE 31 50 29.71 1006 10 16 N/A
3:41 pm 15:41 Cloudy with Thunderstorms 80 26.7 66 18.9 62 62 NNE 24 39 29.79 1009 10 16 N/A
3:45 pm 15:45 Very Windy with Storms Likely 73 23 68 20 83 83 N 43 69 29.83 1010 1 2 0.00 0.00
3:48 pm 15:48 Cloudy with Strong Thunderstorms 70 21 66 19 88 88 NNW 31 50 29.85 1011 1 1 0.01 0.25
3:51 pm 15:51 Cloudy with Strong Thunderstorms 72 22.2 64 17.8 76 76 NW 25 41 29.86 1011 1 1 0.12 3.05
3:56 pm 15:56 Cloudy with Thunderstorms 72 22.2 63 17.2 73 73 NNW 14 22 29.86 1011 1 2 0.12 3.05
3:59 pm 15:59 Cloudy with Thunderstorms 72 22.2 63 17.2 73 73 NNE 18 30 29.86 1011 3 5 0.14 3.56
4:09 pm 16:09 Mostly Cloudy with Nearby Thunderstorms 71 21.7 64 17.8 79 79 NE 9 15 29.84 1010 9 14 0.17 4.32
4:35 pm 16:35 Mostly Cloudy with Thunderstorms 78 25.6 60 15.6 54 54 ENE 7 11 29.80 1009 6 10 0.17 4.32
4:51 pm 16:51 Cloudy with Light Rain 79 26.1 61 16.1 54 54 undefined N/A 29.83 1010 10 16 0.19 4.83
5:11 pm 17:11 Mostly Cloudy with Nearby Thunderstorms 78 25.6 62 16.7 58 58 N 9 15 29.74 1007 10 16 0.00 0.00
5:26 pm 17:26 Mostly Sunny 75 23.9 66 18.9 74 74 E 18 30 29.77 1008 10 16 0.00 0.00
5:51 pm 17:51 Sunny 77 25 64 17.8 64 64 E 15 24 29.84 1010 10 16 0.00 0.00
6:51 pm 18:51 Clear 78 25.6 66 18.9 67 67 E 9 15 29.85 1011 10 16 N/A
7:51 pm 19:51 Mostly Cloudy 77 25 67 19.4 71 71 ESE 9 15 29.87 1012 10 16 N/A
8:51 pm 20:51 Clear 76 24.4 67 19.4 74 74 ESE 8 13 29.90 1013 10 16 N/A
9:51 pm 21:51 Mostly Clear 75 23.9 66 18.9 74 74 E 7 11 29.91 1013 10 16 N/A
10:51 pm 22:51 Clear 73 22.8 65 18.3 76 76 ENE 6 9 29.91 1013 10 16 N/A
11:51 pm 23:51 Clear 72 22.2 66 18.9 82 82 S 5 7 29.93 1013 10 16 N/A

Powered by AerisWeather